Yates Lake Weather Center

Moon Phase Calendar



Yates Lake Water Level
Online Cameras

 


      

Current Conditions in Tallassee
6/19/2021 11:57:00 PM

72°F
Feels Like 74
Clouds
Humidity
97%
Pressure
29.85"
Wind
10.7 mph (S)
Dew Point
71°F
UV Index
0/10 (Low)
Visibility
6 mi

Hourly Forecast

Date & Time Sat, Jun 19
11:00 PM
Sun, Jun 20
12:00 AM
Sun, Jun 20
1:00 AM
Sun, Jun 20
2:00 AM
Sun, Jun 20
3:00 AM
Sun, Jun 20
4:00 AM
Sun, Jun 20
5:00 AM
Sun, Jun 20
6:00 AM
Sun, Jun 20
7:00 AM
Sun, Jun 20
8:00 AM
Sun, Jun 20
9:00 AM
Sun, Jun 20
10:00 AM
Sun, Jun 20
11:00 AM
Sun, Jun 20
12:00 PM
Sun, Jun 20
1:00 PM
Sun, Jun 20
2:00 PM
Sun, Jun 20
3:00 PM
Sun, Jun 20
4:00 PM
Sun, Jun 20
5:00 PM
Sun, Jun 20
6:00 PM
Sun, Jun 20
7:00 PM
Sun, Jun 20
8:00 PM
Sun, Jun 20
9:00 PM
Sun, Jun 20
10:00 PM
Sun, Jun 20
11:00 PM
Mon, Jun 21
12:00 AM
Mon, Jun 21
1:00 AM
Mon, Jun 21
2:00 AM
Mon, Jun 21
3:00 AM
Mon, Jun 21
4:00 AM
Mon, Jun 21
5:00 AM
Mon, Jun 21
6:00 AM
Mon, Jun 21
7:00 AM
Mon, Jun 21
8:00 AM
Mon, Jun 21
9:00 AM
Mon, Jun 21
10:00 AM
Mon, Jun 21
11:00 AM
Mon, Jun 21
12:00 PM
Mon, Jun 21
1:00 PM
Mon, Jun 21
2:00 PM
Mon, Jun 21
3:00 PM
Mon, Jun 21
4:00 PM
Mon, Jun 21
5:00 PM
Mon, Jun 21
6:00 PM
Mon, Jun 21
7:00 PM
Mon, Jun 21
8:00 PM
Mon, Jun 21
9:00 PM
Mon, Jun 21
10:00 PM
Condition
Rain

Clouds

Clouds

Rain

Clouds

Rain

Rain

Rain

Rain

Rain

Rain

Rain

Clouds

Clouds

Rain

Rain

Rain

Rain

Rain

Clouds

Clouds

Clouds

Rain

Rain

Rain

Rain

Clouds

Clear

Clouds

Clouds

Clouds

Clouds

Rain

Rain

Clouds

Clouds

Clouds

Clouds

Rain

Clouds

Clouds

Clouds

Rain

Rain

Rain

Clouds

Clouds

Clouds
Temperature 72°F72°F72°F72°F71°F70°F69°F69°F70°F70°F70°F70°F71°F73°F77°F80°F83°F83°F84°F84°F81°F77°F76°F75°F74°F73°F72°F71°F70°F69°F69°F70°F72°F74°F75°F78°F81°F84°F81°F80°F83°F84°F83°F76°F75°F74°F73°F72°F
Feels Like 74°F74°F74°F73°F72°F71°F71°F71°F71°F71°F71°F72°F72°F74°F78°F84°F89°F89°F90°F90°F85°F79°F78°F76°F75°F75°F73°F72°F71°F71°F71°F71°F73°F75°F77°F79°F85°F89°F85°F80°F86°F87°F88°F78°F76°F75°F74°F73°F
Cloudiness 82%81%81%66%66%72%77%82%85%100%100%100%100%100%100%97%87%82%80%68%61%32%62%55%43%39%36%8%16%21%27%31%36%82%91%94%96%96%97%100%100%100%100%100%100%100%100%100%
Visibility 6 mi6 mi6 mi6 mi6 mi6 mi6 mi2 mi4 mi3 mi2 mi6 mi6 mi6 mi6 mi6 mi6 mi6 mi6 mi6 mi6 mi6 mi6 mi6 mi6 mi6 mi6 mi6 mi6 mi6 mi6 mi6 mi6 mi6 mi6 mi6 mi6 mi6 mi6 mi6 mi6 mi6 mi6 mi6 mi6 mi6 mi6 mi6 mi
Precipitation 100%80%80%74%74%100%100%100%100%85%83%84%80%84%87%76%83%76%76%74%72%27%45%36%36%43%14%8%7%7%5%3%24%77%64%48%43%35%53%41%37%33%49%68%73%40%29%20%
Humidity 96%97%97%96%97%97%98%98%98%98%98%98%98%95%88%80%71%71%68%67%75%80%86%92%96%97%97%98%99%99%99%99%97%95%92%84%72%63%70%70%59%58%67%84%87%87%86%85%
Dew Point 71°F71°F71°F71°F70°F69°F69°F69°F69°F69°F69°F69°F70°F71°F72°F73°F72°F72°F72°F72°F72°F70°F71°F72°F72°F72°F71°F70°F69°F69°F69°F69°F71°F72°F72°F72°F71°F70°F70°F69°F67°F68°F70°F71°F71°F69°F68°F67°F
Pressure 29.85"29.85"29.85"29.85"29.83"29.83"29.83"29.83"29.85"29.85"29.88"29.88"29.91"29.91"29.88"29.85"29.85"29.85"29.85"29.85"29.85"29.88"29.88"29.91"29.91"29.91"29.91"29.91"29.91"29.94"29.94"29.94"29.97"29.97"29.97"29.97"29.97"29.94"29.94"29.94"29.94"29.91"29.91"29.91"29.94"29.94"29.94"29.97"
Wind Speed 11.8 mph10.7 mph9.9 mph10.2 mph10 mph10.6 mph10 mph11 mph10.9 mph10.9 mph10.9 mph9.9 mph9.4 mph8.3 mph8.6 mph9.2 mph9.9 mph9.3 mph8.6 mph7.2 mph4.4 mph6.2 mph8.1 mph7.7 mph8.1 mph8.2 mph7.5 mph6.5 mph4.6 mph4.4 mph4.1 mph4.4 mph5.8 mph7.9 mph7.8 mph9.2 mph9.6 mph10.6 mph11.9 mph11.2 mph10.6 mph8.4 mph6.7 mph7.1 mph4 mph7.8 mph8.5 mph8.9 mph
Wind
Direction
181°
S
181°
S
192°
SSW
207°
SSW
206°
SSW
206°
SSW
214°
SW
220°
SW
228°
SW
233°
SW
246°
WSW
251°
WSW
254°
WSW
258°
WSW
273°
W
277°
W
273°
W
267°
W
260°
W
257°
WSW
252°
WSW
219°
SW
219°
SW
219°
SW
220°
SW
220°
SW
225°
SW
224°
SW
223°
SW
216°
SW
211°
SSW
208°
SSW
216°
SW
227°
SW
237°
WSW
243°
WSW
254°
WSW
251°
WSW
246°
WSW
251°
WSW
255°
WSW
257°
WSW
253°
WSW
247°
WSW
228°
SW
206°
SSW
217°
SW
222°
SW

Daily Forecast

Date High Low Precip. Humidity
Today
Jun 19

Rain
73 °F
70 °F
100%
97%
Sunday
Jun 20

Rain
84 °F
69 °F
100%
95%
Monday
Jun 21

Rain
84 °F
69 °F
77%
63%
Tuesday
Jun 22

Rain
78 °F
70 °F
100%
86%
Wednesday
Jun 23

Rain
87 °F
68 °F
42%
54%
Thursday
Jun 24

Rain
90 °F
70 °F
79%
51%
Friday
Jun 25

Rain
86 °F
71 °F
100%
69%
Saturday
Jun 26

Rain
75 °F
71 °F
100%
96%
Sunday
Jun 27

Rain
85 °F
70 °F
100%
72%
Monday
Jun 28

Rain
87 °F
72 °F
100%
64%
Tuesday
Jun 29

Rain
87 °F
72 °F
95%
67%
Wednesday
Jun 30

Rain
92 °F
72 °F
52%
53%
Thursday
Jul 1

Rain
90 °F
74 °F
83%
58%
Friday
Jul 2

Rain
88 °F
74 °F
99%
66%
Saturday
Jul 3

Rain
94 °F
75 °F
47%
50%
Sunday
Jul 4

Clouds
93 °F
78 °F
0%
48%

Temperature 8-14 Day Outlook



Precipitation 8-14 Day Outlook




Quick Links
Yates Lake News
Yates Lake Photos
Yates Lake Videos




About Us
Contact Us
Site Map
Search Site
Advertise With Us
   
Yates.USLakes.info
THE YATES LAKE WEBSITE

Copyright 2021, Lakes Online
Privacy    |    Legal